FW5404 Weather Reports


time (UTC)temp
F
wind
direction
speed
knots
gust
knots
rain 1hr
in
rain 24hr
in
rain mn
in
humidity
%
barometer
mb
20260502210504 54 0 0.0 0.0 0.00 0.00 0.00 100 1019.3
20260502210005 54 0 0.0 0.0 0.00 0.00 0.00 100 1019.3
20260502205504 54 0 0.0 0.0 0.00 0.00 0.00 100 1019.3
20260502205003 54 0 0.0 0.0 0.00 0.00 0.00 100 1019.3
20260502204504 54 0 0.0 0.0 0.00 0.00 0.00 100 1019.3
20260502204004 54 0 0.0 0.0 0.00 0.00 0.00 100 1019.3
20260502203504 54 0 0.0 0.0 0.00 0.00 0.00 100 1019.3
20260502203004 54 112 1.7 1.7 0.00 0.00 0.00 100 1019.3
20260502202504 54 112 1.7 1.7 0.00 0.00 0.00 100 1019.3
20260502202004 54 112 1.7 1.7 0.00 0.00 0.00 100 1019.3
20260502201504 55 112 1.7 1.7 0.00 0.00 0.00 100 1019.3
20260502201004 55 112 1.7 1.7 0.00 0.00 0.00 100 1019.3
20260502200504 55 112 1.7 1.7 0.00 0.00 0.00 100 1019.3
20260502200006 55 112 1.7 1.7 0.00 0.00 0.00 100 1019.3
20260502195504 55 112 1.7 1.7 0.00 0.00 0.00 100 1019.3
20260502195004 55 112 1.7 1.7 0.00 0.00 0.00 100 1019.3
20260502194503 55 112 1.7 1.7 0.00 0.00 0.00 100 1019.3
20260502194004 55 112 1.7 1.7 0.00 0.00 0.00 100 1019.3
20260502193504 55 112 1.7 1.7 0.00 0.00 0.00 100 1019.3
20260502193004 55 112 1.7 1.7 0.00 0.00 0.00 100 1019.3
20260502192504 55 112 1.7 1.7 0.00 0.00 0.00 100 1019.3
20260502192004 55 112 1.7 1.7 0.00 0.00 0.00 100 1019.3
20260502191504 55 112 1.7 1.7 0.00 0.00 0.00 100 1019.3
20260502191005 55 112 1.7 1.7 0.00 0.00 0.00 100 1019.3
20260502190504 55 112 1.7 1.7 0.00 0.00 0.00 100 1019.3
20260502190006 55 112 1.7 1.7 0.00 0.00 0.00 97 1019.3
20260502185504 55 90 1.7 1.7 0.00 0.00 0.00 97 1019.3
20260502185003 55 90 1.7 1.7 0.00 0.00 0.00 97 1019.3
20260502184504 55 90 1.7 1.7 0.00 0.00 0.00 97 1019.3
20260502184006 55 90 1.7 2.6 0.00 0.00 0.00 97 1019.3
20260502183506 56 85 2.6 2.6 0.00 0.00 0.00 97 1019.3
20260502183006 56 74 2.6 2.6 0.00 0.00 0.00 97 1019.3
20260502182505 56 68 1.7 2.6 0.00 0.00 0.00 97 1019.3
20260502182006 56 68 0.9 2.6 0.00 0.00 0.00 97 1019.3
20260502181505 56 0 0.0 0.0 0.00 0.00 0.00 96 1019.3
20260502181006 56 0 0.0 0.0 0.00 0.00 0.00 97 1019.3
20260502180505 56 0 0.0 0.0 0.00 0.00 0.00 96 1019.3
20260502170506 56 112 1.7 1.7 0.00 0.00 0.00 97 1020.3
20260502164006 56 112 1.7 1.7 0.00 0.00 0.00 97 1020.3
20260502163505 56 112 1.7 1.7 0.00 0.00 0.00 97 1020.3
20260502163005 56 112 1.7 1.7 0.00 0.00 0.00 97 1020.3
20260502162506 56 112 1.7 1.7 0.00 0.00 0.00 97 1020.3
20260502162005 56 112 1.7 1.7 0.00 0.00 0.00 97 1020.3
20260502161505 56 112 1.7 1.7 0.00 0.00 0.00 97 1020.3
20260502161006 56 112 1.7 1.7 0.00 0.00 0.00 97 1020.3
20260502160505 56 112 1.7 1.7 0.00 0.00 0.00 97 1020.3
20260502152005 56 112 1.7 1.7 0.00 0.00 0.00 96 1021.3
20260502151505 56 112 1.7 1.7 0.00 0.00 0.00 95 1021.3
20260502151006 57 112 1.7 1.7 0.00 0.00 0.00 94 1021.3
20260502150505 57 112 1.7 1.7 0.00 0.00 0.00 94 1021.3
20260502130505 60 297 2.6 3.5 0.00 0.00 0.00 82 1021.3
20260502123505 63 68 0.0 1.7 0.00 0.00 0.00 78 1022.3
20260502123005 63 68 0.9 1.7 0.00 0.00 0.00 78 1022.3
20260502122505 63 68 2.6 2.6 0.00 0.00 0.00 78 1022.3
20260502122005 63 68 2.6 2.6 0.00 0.00 0.00 79 1022.3
20260502121505 62 68 2.6 2.6 0.00 0.00 0.00 79 1022.3
20260502121006 62 68 2.6 2.6 0.00 0.00 0.00 78 1022.3
20260502120505 62 68 2.6 2.6 0.00 0.00 0.00 78 1022.3
20260502115505 62 104 0.9 2.6 0.00 0.00 0.00 80 1022.3
20260502115006 62 104 0.9 2.6 0.00 0.00 0.00 80 1022.3
20260502114505 62 96 0.9 3.5 0.00 0.00 0.00 80 1022.3
20260502114005 62 87 0.9 3.5 0.00 0.00 0.00 80 1022.3
20260502113505 62 91 1.7 3.5 0.00 0.00 0.00 79 1022.3
20260502113005 62 124 1.7 2.6 0.00 0.00 0.00 79 1022.3
20260502112505 61 121 1.7 2.6 0.00 0.00 0.00 80 1022.3
20260502112006 61 112 1.7 2.6 0.00 0.00 0.00 80 1022.3
20260502111505 61 112 1.7 2.6 0.00 0.00 0.00 79 1022.3
20260502111005 61 111 1.7 2.6 0.00 0.00 0.00 79 1022.3
20260502110505 61 112 2.6 2.6 0.00 0.00 0.00 80 1022.3
20260502110007 61 101 2.6 4.3 0.00 0.00 0.00 81 1023.3
20260502105505 61 105 2.6 4.3 0.00 0.00 0.00 82 1023.3
20260502105005 61 120 1.7 4.3 0.00 0.00 0.00 82 1023.3
20260502104505 60 91 2.6 4.3 0.00 0.00 0.00 84 1023.3
20260502104005 60 87 2.6 4.3 0.00 0.00 0.00 84 1023.3
20260502103505 59 99 1.7 3.5 0.00 0.00 0.00 84 1023.3
20260502103004 59 97 1.7 3.5 0.00 0.00 0.00 85 1023.3
20260502102505 59 93 2.6 3.5 0.00 0.00 0.00 86 1023.3
20260502101504 58 81 2.6 3.5 0.00 0.00 0.00 86 1023.3
20260502101006 58 81 2.6 3.5 0.00 0.00 0.00 86 1023.3
20260502100505 58 83 2.6 3.5 0.00 0.00 0.00 86 1023.3
20260502091504 57 112 2.6 2.6 0.00 0.00 0.00 88 1024.4
20260502091005 57 112 2.6 2.6 0.00 0.00 0.00 88 1024.4
20260502090504 58 112 3.5 3.5 0.00 0.00 0.00 88 1024.4
20260502071505 55 113 2.6 3.5 0.00 0.00 0.00 97 1025.4
20260502071005 54 105 3.5 3.5 0.00 0.00 0.00 97 1025.4
20260502070508 54 106 3.5 3.5 0.00 0.00 0.00 100 1025.4
20260502070006 53 108 3.5 3.5 0.00 0.00 0.00 100 1025.4
20260502065505 53 105 3.5 3.5 0.00 0.00 0.00 100 1025.4
20260502065004 53 90 2.6 3.5 0.00 0.00 0.00 100 1025.4
20260502064505 53 79 2.6 4.3 0.00 0.00 0.00 100 1025.4
20260502064004 53 87 2.6 4.3 0.00 0.00 0.00 100 1025.4
20260502063505 53 90 3.5 4.3 0.00 0.00 0.00 100 1025.4
20260502063005 53 90 3.5 3.5 0.00 0.00 0.00 100 1025.4
20260502062504 52 93 3.5 3.5 0.00 0.00 0.00 100 1025.4
20260502062005 52 103 2.6 3.5 0.00 0.00 0.00 99 1025.4
20260502061505 52 112 3.5 3.5 0.00 0.00 0.00 99 1025.4
20260502061004 52 112 2.6 3.5 0.00 0.00 0.00 100 1025.4
20260502060504 52 107 2.6 3.5 0.00 0.00 0.00 100 1025.4
20260502060006 52 103 2.6 5.2 0.00 0.00 0.00 100 1025.4
20260502055505 51 106 2.6 5.2 0.00 0.00 0.00 99 1025.4
20260502055004 51 112 2.6 2.6 0.00 0.00 0.00 99 1025.4
20260502054504 51 106 2.6 2.6 0.00 0.00 0.00 99 1025.4
20260502054005 51 94 2.6 2.6 0.00 0.00 0.00 99 1025.4
20260502053505 51 84 2.6 3.5 0.00 0.00 0.00 99 1025.4
20260502053005 51 76 2.6 3.5 0.00 0.00 0.00 99 1025.4
20260502052504 51 68 2.6 3.5 0.00 0.00 0.00 99 1025.4
20260502052005 51 78 2.6 2.6 0.00 0.00 0.00 99 1025.4
20260502051504 51 85 1.7 2.6 0.00 0.00 0.00 99 1025.4
20260502051005 50 90 1.7 2.6 0.00 0.00 0.00 99 1025.4
20260502050504 50 99 1.7 2.6 0.00 0.00 0.00 99 1025.4
20260502050006 50 107 2.6 3.5 0.00 0.00 0.00 99 1025.4
20260502045505 50 101 2.6 3.5 0.00 0.00 0.00 99 1025.4
20260502045004 50 94 2.6 2.6 0.00 0.00 0.00 99 1025.4
20260502044504 50 90 2.6 2.6 0.00 0.00 0.00 99 1026.4
20260502044005 50 87 1.7 2.6 0.00 0.00 0.00 99 1026.4
20260502043504 50 84 1.7 2.6 0.00 0.00 0.00 99 1026.4
20260502043005 50 86 1.7 2.6 0.00 0.00 0.00 99 1026.4
20260502042504 50 103 2.6 2.6 0.00 0.00 0.00 99 1026.4
20260502042004 50 110 2.6 3.5 0.00 0.00 0.00 99 1026.4
20260502041504 50 112 2.6 3.5 0.00 0.00 0.00 99 1026.4
20260502041005 50 112 3.5 3.5 0.00 0.00 0.00 99 1026.4
20260502040504 49 112 2.6 3.5 0.00 0.00 0.00 99 1026.4
20260502040006 49 106 1.7 3.5 0.00 0.00 0.00 100 1026.4
20260502035504 49 103 2.6 3.5 0.00 0.00 0.00 100 1026.4
20260502035005 49 99 2.6 3.5 0.00 0.00 0.00 100 1026.4
20260502034504 49 102 2.6 3.5 0.00 0.00 0.00 97 1026.4
20260502034005 49 104 2.6 3.5 0.00 0.00 0.00 97 1026.4
20260502033504 49 99 1.7 2.6 0.00 0.00 0.00 97 1026.4
20260502033005 49 116 0.9 2.6 0.00 0.00 0.00 96 1026.4
20260502032504 48 146 0.9 1.7 0.00 0.00 0.00 96 1026.4
20260502032005 48 169 0.9 1.7 0.00 0.00 0.00 96 1026.4
20260502031504 48 142 1.7 1.7 0.00 0.00 0.00 96 1026.4
20260502031004 49 105 0.9 1.7 0.00 0.00 0.00 97 1026.4
20260502030504 49 110 1.7 1.7 0.00 0.00 0.00 97 1026.4
20260502030006 49 108 2.6 3.5 0.00 0.00 0.00 97 1026.4
20260502025504 49 98 3.5 3.5 0.00 0.00 0.00 97 1026.4
20260502025004 49 86 3.5 4.3 0.00 0.00 0.00 100 1026.4
20260502024504 49 82 2.6 4.3 0.00 0.00 0.00 97 1026.4
20260502024004 49 93 2.6 3.5 0.00 0.00 0.00 97 1026.4
20260502023504 49 94 2.6 3.5 0.00 0.00 0.00 97 1026.4
20260502023005 49 90 3.5 3.5 0.00 0.00 0.00 97 1026.4
20260502022505 49 92 3.5 3.5 0.00 0.00 0.00 96 1026.4
20260502022004 49 91 3.5 4.3 0.00 0.00 0.00 96 1026.4
20260502021504 49 93 3.5 4.3 0.00 0.00 0.00 96 1027.4
20260502021004 49 92 2.6 4.3 0.00 0.00 0.00 96 1027.4
20260502020505 49 92 2.6 3.5 0.00 0.00 0.00 96 1027.4
20260502020006 49 90 1.7 3.5 0.00 0.00 0.00 95 1027.4
20260502015504 49 91 2.6 3.5 0.00 0.00 0.00 95 1027.4
20260502015005 49 88 1.7 2.6 0.00 0.00 0.00 94 1027.4
20260502014504 50 86 1.7 2.6 0.00 0.00 0.00 94 1027.4
20260502014004 50 85 1.7 2.6 0.00 0.00 0.00 94 1027.4
20260502013504 50 86 1.7 2.6 0.00 0.00 0.00 94 1027.4
20260502013005 50 90 1.7 2.6 0.00 0.00 0.00 93 1027.4
20260502012505 50 93 1.7 2.6 0.00 0.00 0.00 94 1027.4
20260502012004 50 100 1.7 2.6 0.00 0.00 0.00 94 1027.4
20260502011504 50 102 0.9 1.7 0.00 0.00 0.00 93 1027.4
20260502011004 50 104 0.9 1.7 0.00 0.00 0.00 93 1027.4
20260502010505 50 109 0.9 1.7 0.00 0.00 0.00 92 1027.4
20260502010006 50 103 0.9 1.7 0.00 0.00 0.00 92 1027.4
20260502005504 50 101 0.9 1.7 0.00 0.00 0.00 92 1027.4
20260502005004 49 101 0.0 1.7 0.00 0.00 0.00 91 1027.4
20260502004504 49 203 0.0 0.9 0.00 0.00 0.00 91 1028.4
20260502004005 49 203 0.0 0.9 0.00 0.00 0.00 91 1028.4
20260502003504 50 0 0.0 0.0 0.00 0.00 0.00 91 1028.4
20260502003004 50 0 0.0 0.0 0.00 0.00 0.00 91 1028.4
20260502002505 50 0 0.0 0.0 0.00 0.00 0.00 91 1028.4
20260502002003 50 158 0.0 1.7 0.00 0.00 0.00 91 1028.4
20260502001505 50 166 0.9 1.7 0.00 0.00 0.00 91 1028.4
20260502001004 51 134 0.9 1.7 0.00 0.00 0.00 91 1028.4
20260502000504 51 97 0.9 2.6 0.00 0.00 0.00 91 1028.4
20260502000005 51 89 0.9 2.6 0.00 0.00 0.00 91 1028.4
20260501235504 51 103 0.0 1.7 0.00 0.00 0.00 91 1028.4
20260501235003 51 0 0.0 0.0 0.00 0.00 0.00 90 1028.4
20260501234504 51 171 0.9 1.7 0.00 0.00 0.00 91 1028.4
20260501234004 51 174 0.9 1.7 0.00 0.00 0.00 91 1028.4
20260501233504 51 149 0.0 1.7 0.00 0.00 0.00 91 1028.4
20260501233004 51 112 0.0 0.9 0.00 0.00 0.00 91 1028.4
20260501232504 51 0 0.0 0.0 0.00 0.00 0.00 91 1028.4
20260501232004 51 0 0.0 0.0 0.00 0.00 0.00 91 1028.4
20260501231504 52 261 0.0 1.7 0.00 0.00 0.00 91 1028.4
20260501231003 52 258 0.0 1.7 0.00 0.00 0.00 90 1028.4
20260501230503 52 248 0.0 0.9 0.00 0.00 0.00 90 1028.4
20260501230008 52 0 0.0 0.0 0.00 0.00 0.00 91 1029.4
20260501225504 53 90 0.0 0.9 0.00 0.00 0.00 90 1029.4
20260501225004 53 102 0.9 1.7 0.00 0.00 0.00 91 1029.4
20260501224504 53 105 0.9 1.7 0.00 0.00 0.00 90 1029.4
20260501224004 53 158 0.0 0.9 0.00 0.00 0.00 90 1029.4
20260501223504 53 158 0.0 0.9 0.00 0.00 0.00 90 1029.4
20260501223004 53 158 0.0 0.9 0.00 0.00 0.00 90 1029.4
20260501222505 53 178 0.0 1.7 0.00 0.00 0.00 90 1029.4
20260501222005 54 189 0.9 1.7 0.00 0.00 0.00 90 1029.4
20260501221504 54 112 0.9 1.7 0.00 0.00 0.00 90 1030.4
20260501221004 54 90 0.9 1.7 0.00 0.00 0.00 91 1030.4
20260501220504 54 90 0.9 1.7 0.00 0.00 0.00 91 1030.4
20260501220006 54 90 1.7 2.6 0.00 0.00 0.00 90 1030.4
20260501215506 55 90 0.9 2.6 0.00 0.00 0.00 90 1030.4